Regional Weather Roundup
Issued by NWS

Home | Current Version | Previous Version | Text Only | Print | Product List | Glossary Off
Versions: 1 2 3 4 5 6 7 8 9 10 11 12 13 14 15 16 17 18 19 20 21 22 23 24 25 26 27 28 29 30 31 32 33 34 35 36 37 38 39 40 41 42 43 44 45 46 47 48 49 50

000
ASUS43 KMPX 050310
RWRMN
WEATHER ROUNDUP FOR MINNESOTA
NATIONAL WEATHER SERVICE TWIN CITIES/CHANHASSEN MN
1000 PM CDT SAT JUL 04 2015


NOTE: "FAIR" INDICATES FEW OR NO CLOUDS BELOW 12,000 FEET WITH NO
SIGNIFICANT WEATHER AND/OR OBSTRUCTIONS TO VISIBILITY. N/A MEANS
CURRENT SKY AND/OR WEATHER CONDITIONS ARE NOT AVAILABLE.

MNZ060>063-068>070-050400-
   Twin Cities Metro

CITY           SKY/WX    TMP DP  RH WIND       PRES   REMARKS
TWIN CITIES    CLEAR     77  63  61 S8        29.90R
ST PAUL        CLEAR     73  64  73 S6        29.91R
CRYSTAL        CLEAR     76  63  64 S7        29.89R
BLAINE         CLEAR     75  63  64 S8        29.90R
LAKEVILLE      CLEAR     68  63  83 S3        29.92R
EDEN PRAIRIE   CLEAR     74  63  68 S8        29.90R
SOUTH ST PAUL  CLEAR     74  63  67 S6        29.91R
LAKE ELMO      FAIR      72  64  78 S5        29.92R
$$
MNZ001>005-007-008-013>017-022>024-027-028-050400-
   Northwest Minnesota

CITY           SKY/WX    TMP DP  RH WIND       PRES   REMARKS
BEMIDJI        CLEAR     69  65  84 SE5       29.86R FOG
HALLOCK        CLOUDY    75  70  83 SE10      29.70F
ROSEAU         CLOUDY    70  61  73 N16G26    29.83R THUNDER
WARROAD        CLOUDY    73  66  78 W15G21    29.82R THUNDER HAZE
THIEF RVR FALL CLOUDY    73  66  78 SE6       29.80R
CROOKSTON      CLOUDY    77  66  69 S9        29.78R
FOSSTON        PTCLDY    70  63  78 CALM      29.83R
DETROIT LAKES  CLEAR     75  63  64 S8        29.86R
MOORHEAD       PTCLDY    75  64  69 S10       29.80R
PARK RAPIDS    CLEAR     74  64  71 SE6       29.86R
MAHNOMEN       FAIR      73  65  76 S5        29.83R
$$
MNZ006-009>011-018-025>026-050400-
   North Central Minnesota

CITY           SKY/WX    TMP DP  RH WIND       PRES   REMARKS
BAUDETTE       CLOUDY    72  63  73 S5        29.82R
INTL FALLS     CLOUDY    70  60  70 VRB3      29.85R
WASKISH        MOCLDY    70  66  88 SE5       29.84R FOG
BIG FORK       PTCLDY    70  63  78 SE5       29.88R HAZE
LONGVILLE      PTCLDY    68  64  88 CALM      29.88R FOG
GRAND RAPIDS   MOCLDY    66  61  82 SE3       29.91R
CRANE LAKE     CLEAR     63  61  94 S1        29.90R
ORR            CLEAR     66  57  72 CALM      29.88R
COOK           CLEAR     70  61  73 S6        29.91R
WALKER         FAIR      72  65  78 CALM      29.87R
$$
MNZ012-019>021-037-050400-
   Northeast Minnesota

CITY           SKY/WX    TMP DP  RH WIND       PRES   REMARKS
DULUTH         PTCLDY    62  55  77 E6        29.94R
ELY            CLEAR     64  54  68 SE3       29.94R
HIBBING        CLOUDY    67  59  75 SE5       29.92R
DULUTH HARBOR  CLEAR     61  57  88 NE14      29.93R
TWO HARBORS    CLEAR    N/A N/A N/A NE5       29.91R
SILVER BAY     CLEAR     59  55  88 N3        29.93R
GRAND MARAIS     N/A     56  50  80 NE3       29.95R
G MARAIS ARPRT PTCLDY    54  48  82 NE3       29.99R
$$
MNZ029>031-032-039>041-046>048-054>057-064-050400-
   West Central Minnesota

CITY           SKY/WX    TMP DP  RH WIND       PRES   REMARKS
FERGUS FALLS   CLEAR     73  64  73 S10       29.83R
WHEATON        CLEAR     73  63  68 SE10      29.84R
MORRIS         CLEAR     73  64  73 S6        29.85R HAZE
ALEXANDRIA     CLEAR     73  64  73 S8        29.88R
ELBOW LAKE     FAIR      72  65  78 SE7       29.85R
WADENA         CLEAR     72  64  78 S5        29.87R
GLENWOOD       CLEAR     70  64  83 SE7       29.88R
APPLETON       CLEAR     73  63  68 S6        29.84R
BENSON         CLEAR     72  63  73 S3        29.86R
ORTONVILLE     CLEAR     72  64  78 SE3       29.84R
MADISON        CLEAR     72  63  73 S6        29.85R
WILLMAR        FAIR      72  66  83 S5        29.89R
$$
MNZ033>034-036-042>043-049>051-058-059-050400-
   Central Minnesota

CITY           SKY/WX    TMP DP  RH WIND       PRES   REMARKS
ST CLOUD       CLEAR     73  65  75 S7        29.88R
SAUK CENTRE    FAIR      69  65  87 SE6       29.88S FOG
PAYNESVILLE    CLEAR     71  64  77 SE7       29.89R
AITKIN         PTCLDY    72  64  78 CALM      29.89R HAZE
PINE RIVER       N/A     72  64  78 CALM      29.92R HAZE
BRAINERD       MOCLDY    74  66  76 S5        29.89R HAZE
STAPLES        CLEAR     72  64  78 S5        29.87R
LONG PRAIRIE   FAIR      68  64  88 SE6       29.88S
LITTLE FALLS   CLEAR     72  63  73 S3        29.89R
LITCHFIELD     CLEAR     75  66  73 CALM      29.89R
BUFFALO        CLEAR     73  63  71 SE3       29.90R
MAPLE LAKE     CLEAR     72  66  81 S3        29.90R HAZE
$$
MNZ037-044-045-052-053-050400-
   East Central Minnesota

CITY           SKY/WX    TMP DP  RH WIND       PRES   REMARKS
PRINCETON      CLEAR     75  66  73 S5        29.90R
MORA           PTCLDY    73  64  73 S6        29.91R
CAMBRIDGE      CLEAR     79  64  61 CALM      29.89R
RUSH CITY      MOCLDY    73  65  76 S3        29.90R
MOOSE LAKE     PTCLDY    64  59  82 NE5       29.90R
HINCKLEY       MOCLDY    73  66  78 CALM      29.90R
CLOQUET        CLEAR     61  54  77 E3        29.93R
MCGREGOR       MOCLDY    70  64  83 SE3       29.90R
$$
MNZ071>073-080-081-089-090-097-098-050400-
   Southwest Minnesota

CITY           SKY/WX    TMP DP  RH WIND       PRES   REMARKS
MONTEVIDEO     CLEAR     72  64  78 S5        29.87R
GRANITE FALLS  CLEAR     69  63  80 SE6       29.88R
CANBY          CLEAR     73  64  73 S6        29.87R
MARSHALL       CLEAR     72  61  68 S8          N/A
REDWOOD FALLS  CLEAR     73  62  68 S10       29.87S
OLIVIA         CLEAR     72  61  68 S7        29.88R
PIPESTONE      CLEAR     70  64  83 S6        29.90R
WINDOM         CLEAR     70  61  73 SE5       29.91S
WORTHINGTON    CLEAR     70  57  64 S9        29.92S
JACKSON        CLEAR     68  61  77 S6        29.93R
TRACY          CLEAR     73  64  72 S7        29.89R
SLAYTON        CLEAR     69  64  81 CALM      29.92R
$$
MNZ065>067-074>077-082>085-091>093-050400-
   South Central Minnesota

CITY           SKY/WX    TMP DP  RH WIND       PRES   REMARKS
MANKATO        CLEAR     72  61  68 S6        29.92R
NEW ULM        CLEAR     70  63  78 S6        29.90R
ST JAMES       CLEAR     72  63  73 SE8       29.92R
FAIRMONT       CLEAR     66  57  72 S7        29.92R
GLENCOE        CLEAR     73  65  77 SE5       29.89S
FARIBAULT      CLEAR     70  63  78 CALM      29.93R
OWATONNA       CLEAR     70  61  73 SE7       29.93S
WASECA         CLEAR     70  61  73 SE7       29.94R
ALBERT LEA     CLEAR     72  57  60 S6        29.95R
$$
MNZ078>079-086>088-094>096-050400-
   Southeast Minnesota

CITY           SKY/WX    TMP DP  RH WIND       PRES   REMARKS
ROCHESTER      CLEAR     68  61  78 S6        29.96R
RED WING       CLEAR     75  63  64 SW5       29.91R
STANTON        CLEAR     70  63  78 SW3       29.91R
DODGE CENTER   CLEAR     66  61  82 S6        29.95R
WINONA         CLEAR     73  66  78 CALM      29.94R
AUSTIN         CLEAR     70  61  73 CALM      29.96R
PRESTON        CLEAR     67  61  80 S5        29.98R
$$
ABBREVIATIONS USED IN REMARKS
   TC - TEMPERATURES IN CELSIUS
  WCI - WIND CHILL INDEX
   HX - HEAT INDEX
  VSB - VISIBILITY
$$


USA.gov is the U.S. government's official web portal to all federal, state and local government web resources and services.